| time (UTC) | temp C | wind direction | speed KPH | gust KPH | rain 1hr cm | rain 24hr cm | rain mn cm | humidity % | barometer mb |
| 20260508130033 | 11 | 271 | 4.8 | 14.5 | 0.00 | 0.00 | 0.00 | 64 | 1018.8 |
| 20260508123034 | 11 | 282 | 9.7 | 20.9 | 0.00 | 0.00 | 0.00 | 64 | 1018.7 |
| 20260508121528 | 11 | 283 | 8.0 | 16.1 | 0.00 | 0.00 | 0.00 | 62 | 1018.6 |
| 20260508120033 | 11 | 282 | 8.0 | 17.7 | 0.00 | 0.00 | 0.00 | 61 | 1018.5 |
| 20260508114532 | 11 | 293 | 6.4 | 14.5 | 0.00 | 0.00 | 0.00 | 60 | 1018.5 |
| 20260508110104 | 10 | 274 | 1.6 | 11.3 | 0.00 | 0.00 | 0.00 | 64 | 1018.2 |
| 20260508104530 | 10 | 283 | 1.6 | 9.7 | 0.00 | 0.00 | 0.00 | 65 | 1018.3 |
| 20260508103107 | 10 | 292 | 1.6 | 9.7 | 0.00 | 0.00 | 0.00 | 65 | 1018.2 |
| 20260508101542 | 10 | 291 | 3.2 | 8.0 | 0.00 | 0.00 | 0.00 | 65 | 1018.3 |
| 20260508100031 | 10 | 263 | 3.2 | 8.0 | 0.00 | 0.00 | 0.00 | 65 | 1018.3 |
| 20260508094533 | 9 | 288 | 6.4 | 9.7 | 0.00 | 0.00 | 0.00 | 67 | 1018.2 |
| 20260508093031 | 10 | 285 | 4.8 | 11.3 | 0.00 | 0.00 | 0.00 | 67 | 1018.1 |
| 20260508091530 | 10 | 288 | 6.4 | 11.3 | 0.00 | 0.00 | 0.00 | 66 | 1018.1 |
| 20260508090032 | 10 | 298 | 4.8 | 11.3 | 0.00 | 0.00 | 0.00 | 66 | 1018.2 |
| 20260508084605 | 10 | 300 | 6.4 | 9.7 | 0.00 | 0.00 | 0.00 | 66 | 1018.2 |
| 20260508083146 | 10 | 289 | 6.4 | 11.3 | 0.00 | 0.00 | 0.00 | 65 | 1018.1 |
| 20260508081530 | 10 | 291 | 6.4 | 11.3 | 0.00 | 0.00 | 0.00 | 63 | 1018.2 |
| 20260508080031 | 10 | 303 | 6.4 | 11.3 | 0.00 | 0.00 | 0.00 | 61 | 1018.2 |
| 20260508074531 | 11 | 303 | 4.8 | 8.0 | 0.00 | 0.00 | 0.00 | 58 | 1018.3 |
| 20260508071532 | 11 | 279 | 4.8 | 12.9 | 0.00 | 0.00 | 0.00 | 56 | 1018.3 |
| 20260508070036 | 11 | 254 | 6.4 | 11.3 | 0.00 | 0.00 | 0.00 | 58 | 1018.3 |
| 20260508064532 | 11 | 279 | 6.4 | 11.3 | 0.00 | 0.00 | 0.00 | 56 | 1018.3 |
| 20260508063031 | 11 | 271 | 8.0 | 12.9 | 0.00 | 0.00 | 0.00 | 55 | 1018.4 |
| 20260508061531 | 11 | 264 | 8.0 | 16.1 | 0.00 | 0.00 | 0.00 | 54 | 1018.3 |
| 20260508060105 | 11 | 275 | 6.4 | 11.3 | 0.00 | 0.00 | 0.00 | 52 | 1018.4 |
| 20260508054648 | 11 | 257 | 6.4 | 12.9 | 0.00 | 0.00 | 0.00 | 51 | 1018.4 |
| 20260508053030 | 12 | 255 | 4.8 | 9.7 | 0.00 | 0.00 | 0.00 | 49 | 1018.5 |
| 20260508041607 | 11 | 254 | 4.8 | 9.7 | 0.00 | 0.00 | 0.00 | 42 | 1018.3 |
| 20260508034532 | 12 | 289 | 8.0 | 12.9 | 0.00 | 0.00 | 0.00 | 39 | 1018.0 |
| 20260508031644 | 13 | 304 | 9.7 | 11.3 | 0.00 | 0.00 | 0.00 | 35 | 1017.8 |
| 20260508024529 | 15 | 320 | 8.0 | 12.9 | 0.00 | 0.00 | 0.00 | 28 | 1017.9 |
| 20260508023030 | 16 | 322 | 8.0 | 14.5 | 0.00 | 0.00 | 0.00 | 25 | 1017.8 |
| 20260508021529 | 16 | 329 | 9.7 | 17.7 | 0.00 | 0.00 | 0.00 | 23 | 1017.8 |
| 20260508020028 | 17 | 327 | 11.3 | 20.9 | 0.00 | 0.00 | 0.00 | 23 | 1017.8 |
| 20260508014530 | 18 | 327 | 9.7 | 19.3 | 0.00 | 0.00 | 0.00 | 23 | 1017.8 |
| 20260508013031 | 19 | 333 | 8.0 | 16.1 | 0.00 | 0.00 | 0.00 | 22 | 1017.8 |
| 20260508010031 | 18 | 336 | 11.3 | 24.1 | 0.00 | 0.00 | 0.00 | 21 | 1018.0 |
| 20260508003030 | 20 | 315 | 11.3 | 24.1 | 0.00 | 0.00 | 0.00 | 22 | 1017.8 |
| 20260508001529 | 20 | 312 | 14.5 | 33.8 | 0.00 | 0.00 | 0.00 | 21 | 1017.8 |
| 20260508000029 | 21 | 306 | 14.5 | 29.0 | 0.00 | 0.00 | 0.00 | 22 | 1017.6 |
| 20260507233031 | 21 | 323 | 11.3 | 25.7 | 0.00 | 0.00 | 0.00 | 26 | 1017.8 |
| 20260507231531 | 21 | 330 | 9.7 | 24.1 | 0.00 | 0.00 | 0.00 | 28 | 1018.0 |
| 20260507230030 | 20 | 333 | 12.9 | 27.4 | 0.00 | 0.00 | 0.00 | 28 | 1018.0 |
| 20260507224529 | 20 | 332 | 14.5 | 32.2 | 0.00 | 0.00 | 0.00 | 28 | 1018.1 |
| 20260507220105 | 21 | 312 | 12.9 | 29.0 | 0.00 | 0.00 | 0.00 | 31 | 1018.4 |
| 20260507214530 | 21 | 312 | 12.9 | 27.4 | 0.00 | 0.00 | 0.00 | 33 | 1018.5 |
| 20260507213030 | 20 | 325 | 11.3 | 29.0 | 0.00 | 0.00 | 0.00 | 36 | 1018.7 |
| 20260507211545 | 21 | 322 | 16.1 | 30.6 | 0.00 | 0.00 | 0.00 | 35 | 1018.7 |
| 20260507210030 | 21 | 301 | 11.3 | 27.4 | 0.00 | 0.00 | 0.00 | 37 | 1018.9 |
| 20260507204645 | 20 | 321 | 14.5 | 30.6 | 0.00 | 0.00 | 0.00 | 38 | 1019.0 |
| 20260507203031 | 20 | 317 | 14.5 | 27.4 | 0.00 | 0.00 | 0.00 | 39 | 1019.0 |
| 20260507201532 | 18 | 320 | 16.1 | 33.8 | 0.00 | 0.00 | 0.00 | 41 | 1019.2 |
| 20260507194604 | 18 | 342 | 17.7 | 29.0 | 0.00 | 0.00 | 0.00 | 44 | 1019.3 |
| 20260507193031 | 18 | 342 | 16.1 | 32.2 | 0.00 | 0.00 | 0.00 | 44 | 1019.5 |
| 20260507184533 | 17 | 23 | 6.4 | 16.1 | 0.00 | 0.00 | 0.00 | 44 | 1019.8 |
| 20260507183041 | 17 | 323 | 8.0 | 19.3 | 0.00 | 0.00 | 0.00 | 44 | 1019.9 |
| 20260507181532 | 17 | 82 | 6.4 | 16.1 | 0.00 | 0.00 | 0.00 | 48 | 1020.0 |
| 20260507180028 | 17 | 98 | 4.8 | 11.3 | 0.00 | 0.00 | 0.00 | 47 | 1020.0 |
| 20260507174531 | 16 | 78 | 4.8 | 14.5 | 0.00 | 0.00 | 0.00 | 43 | 1020.1 |
| 20260507171533 | 15 | 275 | 9.7 | 25.7 | 0.00 | 0.00 | 0.00 | 47 | 1020.4 |
| 20260507170028 | 14 | 269 | 8.0 | 22.5 | 0.00 | 0.00 | 0.00 | 51 | 1020.4 |
| 20260507164531 | 13 | 287 | 11.3 | 29.0 | 0.00 | 0.00 | 0.00 | 56 | 1020.4 |
| 20260507161532 | 12 | 300 | 12.9 | 27.4 | 0.00 | 0.00 | 0.00 | 63 | 1020.4 |
| 20260507160108 | 13 | 309 | 9.7 | 27.4 | 0.00 | 0.00 | 0.00 | 63 | 1020.6 |
| 20260507154530 | 12 | 290 | 8.0 | 20.9 | 0.00 | 0.00 | 0.00 | 64 | 1020.6 |
| 20260507153032 | 12 | 276 | 9.7 | 19.3 | 0.00 | 0.00 | 0.00 | 66 | 1020.6 |
| 20260507151530 | 11 | 267 | 9.7 | 22.5 | 0.00 | 0.00 | 0.00 | 67 | 1020.8 |
| 20260507150106 | 11 | 279 | 11.3 | 22.5 | 0.00 | 0.00 | 0.00 | 70 | 1020.8 |
| 20260507144532 | 10 | 289 | 12.9 | 24.1 | 0.00 | 0.00 | 0.00 | 73 | 1020.6 |
| 20260507143031 | 10 | 301 | 11.3 | 24.1 | 0.00 | 0.00 | 0.00 | 75 | 1020.7 |
| 20260507141606 | 10 | 288 | 11.3 | 20.9 | 0.00 | 0.00 | 0.00 | 74 | 1020.6 |
| 20260507140031 | 10 | 287 | 6.4 | 16.1 | 0.00 | 0.00 | 0.00 | 74 | 1020.4 |
| 20260507134533 | 10 | 291 | 9.7 | 16.1 | 0.00 | 0.00 | 0.00 | 76 | 1020.3 |
| 20260507133030 | 9 | 282 | 9.7 | 20.9 | 0.00 | 0.00 | 0.00 | 77 | 1020.1 |
| 20260507131530 | 9 | 286 | 9.7 | 20.9 | 0.00 | 0.00 | 0.00 | 78 | 1020.1 |